Location: Vale
(35.4830°N, 81.3830°W)
Time: 07:03:15
(UTC-04:00)

SR - All Passes

Search period start: 19 October 2017 00:00
Search period end: 29 October 2017 00:00
Orbit: 582 x 875 km, 66.7° (Epoch: 18 October)

Date Brightness Start Highest point End Pass type
(mag) Time Alt. Az. Time Alt. Az. Time Alt. Az.
19 Oct - 09:16:55 10° ESE 09:18:26 11° ESE 09:19:55 10° E daylight
19 Oct - 10:54:36 10° SSW 10:59:59 76° WNW 11:04:57 10° NNE daylight
19 Oct - 19:39:12 10° N 19:43:02 32° ENE 19:46:51 10° ESE visible
19 Oct - 21:21:53 10° WNW 21:24:47 18° WSW 21:27:41 10° SSW visible
20 Oct - 10:05:22 10° S 10:10:34 50° ESE 10:15:23 10° NE daylight
20 Oct - 11:49:06 10° W 11:52:48 19° NW 11:56:20 10° N daylight
20 Oct - 18:50:46 10° NNE 18:53:18 15° NE 18:55:48 10° E daylight
20 Oct - 20:31:30 10° NW 20:35:32 44° WSW 20:39:36 10° S visible
21 Oct - 09:17:03 10° SSE 09:21:16 23° ESE 09:25:13 10° ENE daylight
21 Oct - 10:58:12 10° SW 11:03:08 38° WNW 11:07:41 10° N daylight
21 Oct - 19:41:54 10° NNW 19:46:09 73° ENE 19:50:25 10° SSE visible
22 Oct - 08:31:21 10° ESE 08:32:04 10° ESE 08:32:46 10° E daylight
22 Oct - 10:08:13 10° SSW 10:13:36 80° WNW 10:18:31 10° NNE daylight
22 Oct - 11:55:50 10° NW 11:56:16 10° NW 11:56:41 10° NW daylight
22 Oct - 18:52:49 10° N 18:56:36 30° ENE 19:00:22 10° ESE daylight
22 Oct - 20:35:20 10° WNW 20:38:22 19° WSW 20:41:26 10° SSW visible
23 Oct - 09:19:03 10° S 09:24:10 47° ESE 09:28:56 10° NE daylight
23 Oct - 11:02:35 10° W 11:06:23 20° NW 11:09:59 10° N daylight
23 Oct - 18:04:30 10° NNE 18:06:52 14° NE 18:09:11 10° E daylight
23 Oct - 19:45:03 10° NW 19:49:08 47° WSW 19:53:14 10° S visible
24 Oct - 08:30:50 10° SSE 08:34:52 22° ESE 08:38:41 10° ENE daylight
24 Oct - 10:11:46 10° SW 10:16:43 40° WNW 10:21:18 10° N daylight
24 Oct - 18:55:30 10° NNW 18:59:44 68° ENE 19:03:59 10° SE visible
25 Oct - 09:21:51 10° SSW 09:27:12 85° WNW 09:32:06 10° NNE daylight
25 Oct - 11:08:46 10° WNW 11:09:49 11° NW 11:10:50 10° NW daylight
25 Oct - 18:06:28 10° N 18:10:10 28° ENE 18:13:52 10° ESE daylight
25 Oct - 19:48:48 10° WNW 19:51:58 21° WSW 19:55:10 10° SSW visible
26 Oct - 08:32:44 10° S 08:37:47 44° ESE 08:42:28 10° NE daylight
26 Oct - 10:16:04 10° WSW 10:19:57 21° NW 10:23:38 10° N daylight
26 Oct - 17:18:15 10° NNE 17:20:24 14° NE 17:22:33 10° E daylight
26 Oct - 18:58:36 10° NW 19:02:43 50° WSW 19:06:52 10° S visible
27 Oct - 07:44:37 10° SSE 07:48:29 21° ESE 07:52:09 10° ENE daylight
27 Oct - 09:25:20 10° SW 09:30:18 42° WNW 09:34:54 10° NNE daylight
27 Oct - 18:09:05 10° NNW 18:13:18 63° ENE 18:17:33 10° SE daylight
28 Oct - 08:35:29 10° SSW 08:40:47 89° W 08:45:40 10° NNE daylight
28 Oct - 10:21:58 10° WNW 10:23:22 11° NW 10:24:45 10° NNW daylight
28 Oct - 17:20:05 10° N 17:23:43 27° NE 17:27:22 10° ESE daylight
28 Oct - 19:02:17 10° WNW 19:05:34 22° WSW 19:08:54 10° SSW visible
